Date String (YYYY-MM-DD hh:mm:ss) UTC,Instrument flags,absolute air pressure of the measurement (hPa),sample flow rate (lpm),inlet stack bypass flow (lpm),air temperature of the measurement (°C),ambient temperature measured by the external sensor (°C),aerosol sample conditioner tube jacket temperature (°C),OPC LED temperature (°C),internal box temperature (°C),relative humidity of the measurement (%),span deviation,mass concentration of particles derived from Lorenz-Mie calculation of OPC scattering (μg/m³),mass concentration of particles derived from Lorenz-Mie calculation of OPC scattering (μg/m³),mass concentration of particles derived from Lorenz-Mie calculation of OPC scattering (μg/m³)
DateTimeUTC,F1_M11,P_M11,Q1_M11,Q2_M11,T1_M11,T2_M11,T3_M11,T4_M11,T5_M11,U1_M11,ZSPAN_M11,X0_M11,X2_M11,X1_M11
2023-06-25 16:00:00,SystemResetWarning,0835.4,5.00,000.00,029.5,027.4,000.0,038.1,031.0,29.0,0000.0,0013.32,0004.84,0003.76
2023-06-25 16:01:00,SystemResetWarning,0835.5,4.99,000.00,029.6,027.6,000.0,038.1,031.1,29.1,0000.0,0012.88,0004.81,0003.76
2023-06-25 16:02:00,SystemResetWarning,0835.5,5.00,000.00,029.6,027.7,000.0,038.1,031.1,28.1,0000.0,0012.87,0004.80,0003.76
2023-06-25 16:03:00,SystemResetWarning,0835.4,5.00,000.00,029.6,027.9,000.0,038.1,031.2,28.4,0000.0,0013.04,0004.74,0003.74
2023-06-25 16:04:00,SystemResetWarning,0835.5,5.00,000.00,029.6,028.0,000.0,038.2,031.2,28.1,0000.0,0013.43,0004.73,0003.73
2023-06-25 16:05:00,SystemResetWarning,0835.4,5.00,000.00,029.6,028.0,000.0,038.2,031.2,28.1,0000.0,0012.76,0004.77,0003.74
2023-06-25 16:06:00,SystemResetWarning,0835.4,5.00,000.00,029.7,028.1,000.0,038.2,031.2,28.3,0000.0,0013.18,0004.77,0003.74
2023-06-25 16:07:00,SystemResetWarning,0835.5,4.99,000.00,029.7,028.2,000.0,038.2,031.2,28.4,0000.0,0014.09,0004.78,0003.76
2023-06-25 16:08:00,SystemResetWarning,0835.5,5.00,000.00,029.7,028.2,000.0,038.2,031.3,29.0,0000.0,0013.80,0004.81,0003.76
2023-06-25 16:09:00,SystemResetWarning,0835.5,5.00,000.00,029.7,028.3,000.0,038.2,031.3,29.3,0000.0,0013.43,0004.82,0003.77
2023-06-25 16:10:00,SystemResetWarning,0835.5,5.00,000.00,029.8,027.6,000.0,038.2,031.4,28.6,0000.0,0013.45,0004.83,0003.80
2023-06-25 16:11:00,SystemResetWarning,0835.4,5.00,000.00,029.8,025.9,000.0,038.1,031.4,27.8,0000.0,0013.51,0004.86,0003.83
2023-06-25 16:12:00,SystemResetWarning,0835.4,5.01,000.00,029.8,025.7,000.0,038.1,031.4,27.6,0000.0,0014.09,0004.90,0003.84
2023-06-25 16:13:00,SystemResetWarning,0835.4,5.01,000.00,029.7,026.0,000.0,038.1,031.1,28.5,0000.0,0014.63,0004.92,0003.83
2023-06-25 16:14:00,SystemResetWarning,0835.5,5.00,000.00,029.6,026.3,000.0,038.1,031.0,29.0,0000.0,0014.05,0004.96,0003.83
2023-06-25 16:15:00,SystemResetWarning,0835.5,4.99,000.00,029.6,026.7,000.0,038.1,031.0,28.5,0000.0,0013.77,0004.99,0003.83
2023-06-25 16:16:00,SystemResetWarning,0835.5,5.00,000.00,029.6,027.0,000.0,038.1,031.1,28.7,0000.0,0013.41,0004.96,0003.86
2023-06-25 16:17:00,SystemResetWarning,0835.5,5.00,000.00,029.6,027.3,000.0,038.1,031.1,28.7,0000.0,0013.53,0004.96,0003.88
2023-06-25 16:18:00,SystemResetWarning,0835.5,5.00,000.00,029.6,027.5,000.0,038.2,031.1,28.6,0000.0,0012.80,0004.95,0003.87
2023-06-25 16:19:00,SystemResetWarning,0835.4,5.01,000.00,029.6,027.7,000.0,038.2,031.1,28.7,0000.0,0012.85,0004.95,0003.87
2023-06-25 16:20:00,SystemResetWarning,0835.4,4.99,000.00,029.7,027.8,000.0,038.2,031.2,29.0,0000.0,0012.82,0004.91,0003.88
2023-06-25 16:21:00,SystemResetWarning,0835.4,4.99,000.00,029.7,028.0,000.0,038.2,031.2,29.2,0000.0,0013.51,0004.92,0003.88
2023-06-25 16:22:00,SystemResetWarning,0835.5,5.01,000.00,029.7,028.1,000.0,038.2,031.3,28.5,0000.0,0013.90,0004.96,0003.88
2023-06-25 16:23:00,SystemResetWarning,0835.4,5.01,000.00,029.7,028.2,000.0,038.2,031.3,28.3,0000.0,0013.45,0004.94,0003.88
2023-06-25 16:24:00,SystemResetWarning,0835.4,4.98,000.00,029.8,027.2,000.0,038.2,031.4,28.2,0000.0,0012.87,0004.94,0003.90
2023-06-25 16:25:00,SystemResetWarning,0835.4,5.00,000.00,029.8,025.6,000.0,038.1,031.4,28.3,0000.0,0012.80,0004.95,0003.90
2023-06-25 16:26:00,SystemResetWarning,0835.3,5.01,000.00,029.7,025.6,000.0,038.1,031.2,28.2,0000.0,0012.75,0004.96,0003.89
2023-06-25 16:27:00,SystemResetWarning,0835.3,4.99,000.00,029.6,025.9,000.0,038.1,031.0,28.3,0000.0,0013.67,0004.95,0003.86
2023-06-25 16:28:00,SystemResetWarning,0835.4,4.99,000.00,029.6,026.3,000.0,038.1,031.0,28.0,0000.0,0013.71,0004.95,0003.85
2023-06-25 16:29:00,SystemResetWarning,0835.3,5.00,000.00,029.6,026.6,000.0,038.1,031.0,28.7,0000.0,0013.98,0004.95,0003.84
2023-06-25 16:30:00,SystemResetWarning,0835.3,5.00,000.00,029.6,027.0,000.0,038.1,031.0,28.7,0000.0,0013.62,0004.95,0003.83
2023-06-25 16:31:00,SystemResetWarning,0835.3,4.99,000.00,029.6,027.2,000.0,038.1,031.0,28.8,0000.0,0013.63,0004.95,0003.83
2023-06-25 16:32:00,SystemResetWarning,0835.3,4.99,000.00,029.6,027.5,000.0,038.1,031.0,28.8,0000.0,0012.91,0004.95,0003.83
2023-06-25 16:33:00,SystemResetWarning,0835.3,5.01,000.00,029.6,027.7,000.0,038.1,031.1,29.4,0000.0,0012.51,0004.95,0003.85
2023-06-25 16:34:00,SystemResetWarning,0835.3,5.01,000.00,029.6,027.8,000.0,038.1,031.2,28.7,0000.0,0013.05,0004.95,0003.86
2023-06-25 16:35:00,SystemResetWarning,0835.3,4.99,000.00,029.7,028.0,000.0,038.1,031.2,28.8,0000.0,0013.00,0004.94,0003.87
2023-06-25 16:36:00,SystemResetWarning,0835.3,4.99,000.00,029.7,028.1,000.0,038.2,031.2,29.3,0000.0,0013.07,0004.93,0003.89
2023-06-25 16:37:00,SystemResetWarning,0835.3,5.00,000.00,029.7,028.1,000.0,038.2,031.2,29.5,0000.0,0013.19,0004.89,0003.91
2023-06-25 16:38:00,SystemResetWarning,0835.3,4.99,000.00,029.7,026.9,000.0,038.1,031.3,29.4,0000.0,0012.38,0004.89,0003.91
2023-06-25 16:39:00,SystemResetWarning,0835.3,5.01,000.00,029.7,024.9,000.0,038.0,031.2,29.7,0000.0,0012.53,0004.91,0003.92
2023-06-25 16:40:00,SystemResetWarning,0835.3,5.02,000.00,029.7,024.4,000.0,038.0,031.1,30.0,0000.0,0013.16,0004.94,0003.95
2023-06-25 16:41:00,SystemResetWarning,0835.3,5.00,000.00,029.5,024.7,000.0,038.0,030.8,30.2,0000.0,0013.67,0004.94,0003.96
2023-06-25 16:42:00,SystemResetWarning,0835.3,5.00,000.00,029.4,025.1,000.0,038.0,030.7,30.0,0000.0,0014.66,0004.96,0003.95
2023-06-25 16:43:00,SystemResetWarning,0835.2,5.00,000.00,029.4,025.6,000.0,038.0,030.7,30.2,0000.0,0014.82,0005.00,0003.94
2023-06-25 16:44:00,SystemResetWarning,0835.2,5.00,000.00,029.4,026.1,000.0,038.0,030.7,30.1,0000.0,0014.67,0005.02,0003.92
2023-06-25 16:45:00,SystemResetWarning,0835.2,5.00,000.00,029.4,026.5,000.0,038.0,030.8,30.2,0000.0,0013.32,0004.96,0003.89
2023-06-25 16:46:00,SystemResetWarning,0835.2,5.00,000.00,029.4,026.8,000.0,038.0,030.8,29.6,0000.0,0013.39,0005.04,0003.89
2023-06-25 16:47:00,SystemResetWarning,0835.2,5.01,000.00,029.4,027.1,000.0,038.0,030.9,29.4,0000.0,0013.53,0005.07,0003.87
2023-06-25 16:48:00,SystemResetWarning,0835.3,5.00,000.00,029.4,027.3,000.0,038.0,030.9,29.2,0000.0,0013.37,0005.09,0003.86
2023-06-25 16:49:00,SystemResetWarning,0835.2,5.00,000.00,029.4,027.5,000.0,038.0,030.9,29.2,0000.0,0013.58,0005.16,0003.85
2023-06-25 16:50:00,SystemResetWarning,0835.3,5.00,000.00,029.4,027.6,000.0,038.0,031.0,30.2,0000.0,0013.95,0005.19,0003.86
2023-06-25 16:51:00,SystemResetWarning,0835.3,5.00,000.00,029.4,027.8,000.0,038.0,031.0,29.6,0000.0,0013.37,0005.20,0003.85
2023-06-25 16:52:00,SystemResetWarning,0835.3,5.00,000.00,029.5,027.9,000.0,038.0,031.0,29.3,0000.0,0013.51,0005.21,0003.86
2023-06-25 16:53:00,SystemResetWarning,0835.3,5.00,000.00,029.5,028.0,000.0,038.0,031.1,28.9,0000.0,0012.85,0005.24,0003.88
2023-06-25 16:54:00,SystemResetWarning,0835.2,4.99,000.00,029.5,028.0,000.0,038.0,031.1,28.7,0000.0,0013.82,0005.24,0003.92
2023-06-25 16:55:00,SystemResetWarning,0835.2,4.99,000.00,029.6,028.1,000.0,038.0,031.2,29.8,0000.0,0014.82,0005.23,0003.93
2023-06-25 16:56:00,SystemResetWarning,0835.2,4.99,000.00,029.6,028.0,000.0,038.0,031.2,29.5,0000.0,0015.53,0005.28,0003.95
2023-06-25 16:57:00,SystemResetWarning,0835.2,5.00,000.00,029.6,026.1,000.0,038.0,031.2,29.2,0000.0,0015.64,0005.28,0003.97
2023-06-25 16:58:00,SystemResetWarning,0835.3,5.00,000.00,029.6,024.6,000.0,037.9,031.1,29.2,0000.0,0015.80,0005.32,0004.01
2023-06-25 16:59:00,SystemResetWarning,0835.3,5.01,000.00,029.5,024.5,000.0,037.9,031.0,29.3,0000.0,0016.07,0005.38,0004.06
